CYGFM03 (41891 NORAD) Tracking and Keplerian Element Data

This shows tracking and keplerian element data for the satellite.

Feedback or suggestion? Click here.




ElementValue
Catalog41891
NameCYGFM03
Epoch Orbit11006
Epoch Day345.17373827
Epoch Year2018
RAAN257.6907
Inclination34.9552
Eccentricity0.0012933
Argument of Perigee144.5729
Mean Anonmoly215.5843
Mean Motion15.14764743
Decay Rate3.38E-06
L11 41891U 16078H 18345.17373827 .00000338 00000-0 19547-4 0 9998
L22 41891 34.9552 257.6907 0012933 144.5729 215.5843 15.14764743110067

Live tracking and technical data element details for CYGFM03 (NORAD 41891). CYGFM03 can be tracked NOW for your location showing map with azimuth and elevation plus other details from your city location.

Track the satellite on the map from your city or location and see movement details for azimuth, elevation, latitude, longitude, range, height, and movement on the map or in text.







IsCatalogInMostPopularTable: catalog: 41891, numindb: 116
Update: records affected: 1



GetName: 41891 CYGFM03

Hit Count: updated at: Thu, 13 Dec 2018 03:28:45 GMT